Regional Weather Roundup
Issued by NWS State College, PA

Home | Current Version | Previous Version | Text Only | Print | Product List | Glossary On
Versions: 1 2 3 4 5 6 7 8 9 10 11 12 13 14 15 16 17 18 19 20 21 22 23 24 25 26 27 28 29 30 31 32 33 34 35 36 37 38 39 40 41 42 43 44 45 46 47 48 49 50
000
ASUS41 KCTP 200110
RWRCTP

REGIONAL WEATHER ROUNDUP
NATIONAL WEATHER SERVICE STATE COLLEGE PA
800 PM EST FRI DEC 19 2014

Note: "fair" indicates few or no clouds below 12,000 feet with no
significant weather and/or obstructions to visibility.

* = STATION THAT DOES NOT REPORT PRECIPITATION /E.G. RAIN...SNOW...ETC/
    THUNDER OR FOG.

PAZ002>004-007>009-013>016-020>023-029>032-200200-
WESTERN PENNSYLVANIA

CITY           SKY/WX    TMP DP  RH WIND       PRES   REMARKS
ERIE           MOCLDY    31  20  63 NW9       30.27R
MEADVILLE      CLOUDY    27  18  69 W6        30.24R
FRANKLIN*      CLOUDY    25  18  74 CALM      30.25R
NEW CASTLE       N/A     29  21  71 NW6       30.29R
BEAVER COUNTY  NOT AVBL
BUTLER*        CLOUDY    28  21  74 CALM      30.27R
PITTSBURGH INT CLOUDY    30  21  69 W6        30.27R
PITTSBURGH     CLOUDY    30  18  60 NW5       30.25R
INDIANA*       CLOUDY    28  21  74 NW7G13    30.27R
LATROBE        CLOUDY    34  21  60 NW7       30.27R
WASHINGTON CO* NOT AVBL
$$

PAZ004>006-010>012-017>019-024>028-033>037-041-042-045-046-049>053-200200-
CENTRAL PENNSYLVANIA

CITY           SKY/WX    TMP DP  RH WIND       PRES   REMARKS
BRADFORD       CLOUDY    21  17  84 NW8       30.16R WCI  11
DUBOIS         PTCLDY    23  18  81 W8        30.17R WCI  14
CLEARFIELD     CLEAR     25  17  72 W6        30.19R
JOHNSTOWN      CLOUDY    24  17  74 W13       30.16R WCI  12
ALTOONA        PTCLDY    28  19  69 NW17G24   30.20R
STATE COLLEGE  MOCLDY    28  19  69 NW14      30.19R
WILLIAMSPORT   CLOUDY    33  20  58 NW7       30.19S
SELINSGROVE    MOCLDY    33  21  61 NW7       30.20S
FT INDIANTOWN  CLEAR     34  20  57 VRB2      30.17S
CAPITAL CITY   CLEAR     33  21  61 W8        30.20R
HARRISBURG     MOCLDY    31  20  63 NW5       30.19R
YORK           CLEAR     27  20  75 CALM      30.20R
$$

PAZ038>040-043-044-047-048-054-055-060>062-067>071-200200-
EASTERN PENNSYLVANIA

CITY           SKY/WX    TMP DP  RH WIND       PRES   REMARKS
SCRANTON       CLOUDY    30  21  69 N8        30.16F
MOUNT POCONO   CLOUDY    24  19  81 NW18G25   30.06F WCI  10
ALLENTOWN      CLOUDY    33  20  58 N9        30.17F
QUAKERTOWN*    CLOUDY    32  21  64 NW8       30.16S
READING        CLOUDY    34  20  56 NW12      30.17R
LANCASTER      PTCLDY    30  20  66 NW6       30.18R
COATESVILLE    CLEAR     32  23  69 NW7       30.16R
POTTSTOWN      CLOUDY    33  21  61 N10       30.17S
BLUE BELL      PTCLDY    34  23  64 CALM      30.16S
DOYLESTOWN     MOCLDY    30  21  69 N10G18    30.15F
WILLOW GROVE   NOT AVBL
NORTH PHILA    CLEAR     32  19  58 N8        30.18S
PHILADELPHIA   CLEAR     34  21  59 N6        30.18S
$$



USA.gov is the U.S. government's official web portal to all federal, state and local government web resources and services.